Tracking 19149 objects as of 21-Apr-2018
HD Live streaming from Space Station
objects crossing your sky now

FENGYUN 1C DEB

Track FENGYUN 1C DEB now!
10-day predictions


NORAD ID: 30314
Int'l Code: 1999-025AAB
Perigee: 814.3 km
Apogee: 1,031.2 km
Inclination: 98.4 °
Period: 103.3 minutes
Semi major axis: 7293 km
RCS: 0.0083 m2 (small)
Launch date: May 10, 1999
Source: People's Republic of China (PRC)
Launch site: Taiyaun Space Center, China (TSC)

Note: This is SATELLITE DEBRIS
aabbcc
Your satellite tracking list
Your tracking list is empty




NASA's NSSDC Master Catalog

Two Line Element Set (TLE):
1 30314U 99025AAB 18110.03220524  .00000309  00000-0  24162-3 0  9995
2 30314  98.3973 139.4071 0148625 237.1558 121.5223 13.93723766571426
Source of the keplerian elements: AFSPC